Portada
METAR-TAF:

METAR-TAF

Aeroports :

Meekatharra, Austràlia

latitud: 26-36-42S, longitud: 118-32-52E, altitud: 522 m

Observació

L'informe es va fer fa 15 minuts, a les 21:00 UTC
Vent 7 kt del Est
Temperatura 23°C
Humitat 16%
Pressió 1017 hPa
Visibilitat 10 km o més

METAR: YMEK 132100Z AUTO 08007KT 9999 // NCD 23/M04 Q1017

Hora: 05:15 (21:15 UTC)


TAF: manca

Observacions i pronòstics meteorològics de més de 4000 aeroports (METAR i TAF).

Les estacions disponibles són els punts grocs i vermells al mapa.

Posi el ratolí al punt desitjat per veure el nom de l'estació.

Feu clic per veure les observacions i els pronòstics meteorològics.

Per canviar el mapa: feu clic els botons verds amb una creu de color negre per apropar; al botó verd amb un guió per allunyar la imatge; o en les fletxes verdes per a mapes adjacents.


METAR-TAF: